Time,TemperatureF,DewpointF,PressureIn,WindDirection,WindDirectionDegrees,WindSpeedMPH,WindSpeedGustMPH,Humidity,HourlyPrecipIn,Conditions,Clouds,dailyrainin,SoftwareType,DateUTC
2013-04-12 00:00:00,44.5,34.2,30.08,ESE,116,0.0,0.0,67,0.00,,---,0.00,VWS V14.01,2013-04-12 04:00:00,
2013-04-12 00:01:00,44.5,34.2,30.08,ENE,76,1.0,2.0,67,0.00,,---,0.00,VWS V14.01,2013-04-12 04:01:00,
2013-04-12 00:02:00,44.5,34.2,30.08,NW,310,0.0,1.0,67,0.00,,---,0.00,VWS V14.01,2013-04-12 04:02:00,
2013-04-12 00:07:00,44.5,33.5,30.08,NW,318,0.0,0.0,65,0.00,,---,0.00,VWS V14.01,2013-04-12 04:07:00,
2013-04-12 00:12:00,44.5,33.5,30.08,NNE,25,0.0,1.0,65,0.00,,---,0.00,VWS V14.01,2013-04-12 04:12:00,
2013-04-12 00:17:00,44.5,33.5,30.07,ENE,59,0.0,0.0,65,0.00,,---,0.00,VWS V14.01,2013-04-12 04:17:00,
2013-04-12 00:22:00,44.5,33.5,30.07,East,101,0.0,3.0,65,0.00,,---,0.00,VWS V14.01,2013-04-12 04:22:00,
2013-04-12 00:27:00,44.5,33.5,30.07,ENE,69,0.0,1.0,65,0.00,,---,0.00,VWS V14.01,2013-04-12 04:27:00,
2013-04-12 00:33:00,44.5,33.5,30.07,NE,42,1.0,1.0,65,0.00,,---,0.00,VWS V14.01,2013-04-12 04:33:00,
2013-04-12 00:38:00,44.5,33.5,30.06,NE,36,0.0,0.0,65,0.00,,---,0.00,VWS V14.01,2013-04-12 04:38:00,
2013-04-12 00:44:00,44.5,33.1,30.06,SSE,158,0.0,4.0,64,0.00,,---,0.00,VWS V14.01,2013-04-12 04:44:00,
2013-04-12 00:48:00,44.5,32.7,30.05,NNE,22,0.0,2.0,63,0.00,,---,0.00,VWS V14.01,2013-04-12 04:48:00,
2013-04-12 00:53:00,44.3,32.5,30.05,NNW,346,0.0,1.0,63,0.00,,---,0.00,VWS V14.01,2013-04-12 04:53:00,
2013-04-12 00:58:00,44.3,32.5,30.05,SSE,160,0.0,2.0,63,0.00,,---,0.00,VWS V14.01,2013-04-12 04:58:00,
2013-04-12 01:04:00,44.3,32.5,30.04,South,179,3.0,3.0,63,0.00,,---,0.00,VWS V14.01,2013-04-12 05:04:00,
2013-04-12 01:09:00,44.3,32.9,30.04,NNW,332,1.0,1.0,64,0.00,,---,0.00,VWS V14.01,2013-04-12 05:09:00,
2013-04-12 01:14:00,44.2,32.8,30.04,North,5,0.0,0.0,64,0.00,,---,0.00,VWS V14.01,2013-04-12 05:14:00,
2013-04-12 01:20:00,44.2,32.8,30.04,North,5,0.0,0.0,64,0.00,,---,0.00,VWS V14.01,2013-04-12 05:20:00,
2013-04-12 01:25:00,44.1,32.3,30.04,West,267,2.0,6.0,63,0.00,,---,0.00,VWS V14.01,2013-04-12 05:25:00,
2013-04-12 01:30:00,44.2,32.4,30.04,SW,227,0.0,0.0,63,0.00,,---,0.00,VWS V14.01,2013-04-12 05:30:00,
2013-04-12 01:36:00,44.2,32.0,30.05,North,5,0.0,2.0,62,0.00,,---,0.00,VWS V14.01,2013-04-12 05:36:00,
2013-04-12 01:41:00,44.2,32.0,30.05,SW,223,0.0,2.0,62,0.00,,---,0.00,VWS V14.01,2013-04-12 05:41:00,
2013-04-12 01:46:00,44.2,32.0,30.05,SSW,213,0.0,0.0,62,0.00,,---,0.00,VWS V14.01,2013-04-12 05:46:00,
2013-04-12 01:51:00,44.2,32.0,30.06,SW,231,0.0,2.0,62,0.00,,---,0.00,VWS V14.01,2013-04-12 05:51:00,
2013-04-12 01:57:00,44.2,32.0,30.05,North,10,0.0,0.0,62,0.00,,---,0.00,VWS V14.01,2013-04-12 05:57:00,
2013-04-12 02:02:00,44.2,32.0,30.05,West,279,0.0,2.0,62,0.00,,---,0.00,VWS V14.01,2013-04-12 06:02:00,
2013-04-12 02:07:00,44.2,32.0,30.05,West,279,0.0,0.0,62,0.00,,---,0.00,VWS V14.01,2013-04-12 06:07:00,
2013-04-12 02:12:00,44.1,32.3,30.05,NNW,343,0.0,1.0,63,0.00,,---,0.00,VWS V14.01,2013-04-12 06:12:00,
2013-04-12 02:17:00,43.9,32.5,30.04,North,355,0.0,0.0,64,0.00,,---,0.00,VWS V14.01,2013-04-12 06:17:00,
2013-04-12 02:22:00,43.6,32.2,30.03,North,355,0.0,2.0,64,0.00,,---,0.00,VWS V14.01,2013-04-12 06:22:00,
2013-04-12 02:27:00,43.5,32.5,30.03,NW,320,0.0,0.0,65,0.00,,---,0.00,VWS V14.01,2013-04-12 06:27:00,
2013-04-12 02:32:00,43.2,32.2,30.04,NNW,329,0.0,0.0,65,0.00,,---,0.00,VWS V14.01,2013-04-12 06:32:00,
2013-04-12 02:37:00,43.1,32.2,30.04,North,5,0.0,2.0,65,0.00,,---,0.00,VWS V14.01,2013-04-12 06:37:00,
2013-04-12 02:42:00,42.8,31.9,30.04,East,95,0.0,0.0,65,0.00,,---,0.00,VWS V14.01,2013-04-12 06:42:00,
2013-04-12 02:47:00,42.6,31.7,30.04,NW,323,1.0,1.0,65,0.00,,---,0.00,VWS V14.01,2013-04-12 06:47:00,
2013-04-12 02:53:00,42.5,31.6,30.04,North,5,0.0,0.0,65,0.00,,---,0.00,VWS V14.01,2013-04-12 06:53:00,
2013-04-12 02:58:00,42.3,31.8,30.04,WNW,300,0.0,0.0,66,0.00,,---,0.00,VWS V14.01,2013-04-12 06:58:00,
2013-04-12 03:04:00,42.2,31.7,30.04,NNE,25,0.0,3.0,66,0.00,,---,0.00,VWS V14.01,2013-04-12 07:04:00,
2013-04-12 03:09:00,42.1,32.0,30.04,SSE,153,0.0,0.0,67,0.00,,---,0.00,VWS V14.01,2013-04-12 07:09:00,
2013-04-12 03:14:00,41.9,32.1,30.03,WNW,293,0.0,0.0,68,0.00,,---,0.00,VWS V14.01,2013-04-12 07:14:00,
2013-04-12 03:19:00,41.8,32.0,30.03,NNW,346,2.0,2.0,68,0.00,,---,0.00,VWS V14.01,2013-04-12 07:19:00,
2013-04-12 03:24:00,41.8,32.0,30.03,North,355,0.0,1.0,68,0.00,,---,0.00,VWS V14.01,2013-04-12 07:24:00,
2013-04-12 03:29:00,41.6,31.8,30.04,NNW,340,0.0,0.0,68,0.00,,---,0.00,VWS V14.01,2013-04-12 07:29:00,
2013-04-12 03:34:00,41.6,32.2,30.04,SW,218,0.0,0.0,69,0.00,,---,0.00,VWS V14.01,2013-04-12 07:34:00,
2013-04-12 03:39:00,41.5,32.1,30.04,SW,218,0.0,0.0,69,0.00,,---,0.00,VWS V14.01,2013-04-12 07:39:00,
2013-04-12 03:44:00,41.5,32.1,30.03,SSE,157,1.0,2.0,69,0.00,,---,0.00,VWS V14.01,2013-04-12 07:44:00,
2013-04-12 03:49:00,41.5,32.5,30.03,East,92,0.0,0.0,70,0.00,,---,0.00,VWS V14.01,2013-04-12 07:49:00,
2013-04-12 03:54:00,41.5,32.1,30.03,North,351,0.0,0.0,69,0.00,,---,0.00,VWS V14.01,2013-04-12 07:54:00,
2013-04-12 04:00:00,41.5,32.5,30.03,North,355,0.0,2.0,70,0.00,,---,0.00,VWS V14.01,2013-04-12 08:00:00,
2013-04-12 04:05:00,41.5,32.5,30.03,NW,317,0.0,0.0,70,0.00,,---,0.00,VWS V14.01,2013-04-12 08:05:00,
2013-04-12 04:10:00,41.5,32.5,30.03,NW,317,0.0,1.0,70,0.00,,---,0.00,VWS V14.01,2013-04-12 08:10:00,
2013-04-12 04:15:00,41.5,32.8,30.03,NW,316,0.0,0.0,71,0.00,,---,0.00,VWS V14.01,2013-04-12 08:15:00,
2013-04-12 04:21:00,41.5,32.5,30.03,NW,323,0.0,0.0,70,0.00,,---,0.00,VWS V14.01,2013-04-12 08:21:00,
2013-04-12 04:27:00,41.5,32.8,30.02,NW,323,0.0,0.0,71,0.00,,---,0.00,VWS V14.01,2013-04-12 08:27:00,
2013-04-12 04:32:00,41.5,32.8,30.02,North,360,0.0,1.0,71,0.00,,---,0.00,VWS V14.01,2013-04-12 08:32:00,
2013-04-12 04:37:00,41.5,32.8,30.02,WSW,256,1.0,1.0,71,0.00,,---,0.00,VWS V14.01,2013-04-12 08:37:00,
2013-04-12 04:42:00,41.3,32.6,30.02,North,355,0.0,1.0,71,0.00,,---,0.00,VWS V14.01,2013-04-12 08:42:00,
2013-04-12 04:47:00,41.3,32.6,30.02,North,355,1.0,1.0,71,0.00,,---,0.00,VWS V14.01,2013-04-12 08:47:00,
2013-04-12 04:52:00,41.3,32.6,30.03,North,355,0.0,1.0,71,0.00,,---,0.00,VWS V14.01,2013-04-12 08:52:00,
2013-04-12 04:57:00,41.3,32.6,30.02,ENE,69,0.0,1.0,71,0.00,,---,0.00,VWS V14.01,2013-04-12 08:57:00,
2013-04-12 05:03:00,41.3,32.6,30.03,NNE,19,0.0,0.0,71,0.00,,---,0.00,VWS V14.01,2013-04-12 09:03:00,
2013-04-12 05:08:00,41.3,32.6,30.03,SSE,162,0.0,0.0,71,0.00,,---,0.00,VWS V14.01,2013-04-12 09:08:00,
2013-04-12 05:13:00,41.3,32.6,30.02,NW,308,0.0,0.0,71,0.00,,---,0.00,VWS V14.01,2013-04-12 09:13:00,
2013-04-12 05:18:00,41.3,32.6,30.02,NW,308,0.0,0.0,71,0.00,,---,0.00,VWS V14.01,2013-04-12 09:18:00,
2013-04-12 05:23:00,41.5,32.8,30.01,East,100,1.0,1.0,71,0.00,,---,0.00,VWS V14.01,2013-04-12 09:23:00,
2013-04-12 05:28:00,41.5,32.5,30.01,ESE,112,0.0,0.0,70,0.00,,---,0.00,VWS V14.01,2013-04-12 09:28:00,
2013-04-12 05:34:00,41.5,32.5,30.01,WNW,288,1.0,2.0,70,0.00,,---,0.00,VWS V14.01,2013-04-12 09:34:00,
2013-04-12 05:39:00,41.5,32.5,30.02,ESE,103,2.0,2.0,70,0.00,,---,0.00,VWS V14.01,2013-04-12 09:39:00,
2013-04-12 05:45:00,41.5,32.5,30.02,NE,34,0.0,0.0,70,0.00,,---,0.00,VWS V14.01,2013-04-12 09:45:00,
2013-04-12 05:51:00,41.6,32.6,30.02,NNE,31,0.0,0.0,70,0.00,,---,0.00,VWS V14.01,2013-04-12 09:51:00,
2013-04-12 05:56:00,41.6,32.6,30.02,NNE,31,0.0,0.0,70,0.00,,---,0.00,VWS V14.01,2013-04-12 09:56:00,
2013-04-12 06:01:00,41.6,31.8,30.02,South,171,0.0,0.0,68,0.00,,---,0.00,VWS V14.01,2013-04-12 10:01:00,
2013-04-12 06:06:00,41.6,31.8,30.02,NNE,26,0.0,0.0,68,0.00,,---,0.00,VWS V14.01,2013-04-12 10:06:00,
2013-04-12 06:11:00,41.8,32.0,30.01,ENE,68,0.0,1.0,68,0.00,,---,0.00,VWS V14.01,2013-04-12 10:11:00,
2013-04-12 06:16:00,41.9,31.0,30.01,WNW,291,0.0,0.0,65,0.00,,---,0.00,VWS V14.01,2013-04-12 10:16:00,
2013-04-12 06:22:00,41.9,30.6,30.01,SSW,205,0.0,1.0,64,0.00,,---,0.00,VWS V14.01,2013-04-12 10:22:00,
2013-04-12 06:27:00,42.1,28.8,30.01,East,92,0.0,0.0,59,0.00,,---,0.00,VWS V14.01,2013-04-12 10:27:00,
2013-04-12 06:32:00,42.2,27.6,30.01,NNE,13,0.0,1.0,56,0.00,,---,0.00,VWS V14.01,2013-04-12 10:32:00,
2013-04-12 06:37:00,42.5,27.5,30.00,WNW,286,0.0,6.0,55,0.00,,---,0.00,VWS V14.01,2013-04-12 10:37:00,
2013-04-12 06:42:00,42.6,26.2,29.99,North,360,0.0,3.0,52,0.00,,---,0.00,VWS V14.01,2013-04-12 10:42:00,
2013-04-12 06:47:00,42.8,25.9,30.00,SSE,167,2.0,3.0,51,0.00,,---,0.00,VWS V14.01,2013-04-12 10:47:00,
2013-04-12 06:53:00,42.9,26.5,29.98,SE,142,0.0,1.0,52,0.00,,---,0.00,VWS V14.01,2013-04-12 10:53:00,
2013-04-12 06:59:00,42.9,26.0,29.98,WNW,302,0.0,4.0,51,0.00,,---,0.00,VWS V14.01,2013-04-12 10:59:00,
2013-04-12 07:04:00,43.1,26.2,29.98,NNW,335,0.0,0.0,51,0.00,,---,0.00,VWS V14.01,2013-04-12 11:04:00,
2013-04-12 07:09:00,43.1,25.7,29.98,SW,231,0.0,3.0,50,0.00,,---,0.00,VWS V14.01,2013-04-12 11:09:00,
2013-04-12 07:14:00,43.1,25.3,29.99,NNW,341,0.0,2.0,49,0.00,,---,0.00,VWS V14.01,2013-04-12 11:14:00,
2013-04-12 07:20:00,43.1,25.3,29.99,SSE,149,3.0,3.0,49,0.00,,---,0.00,VWS V14.01,2013-04-12 11:20:00,
2013-04-12 07:25:00,43.1,25.3,29.99,South,169,4.0,5.0,49,0.00,,---,0.00,VWS V14.01,2013-04-12 11:25:00,
2013-04-12 07:30:00,43.2,25.4,29.99,NNW,329,0.0,4.0,49,0.00,,---,0.00,VWS V14.01,2013-04-12 11:30:00,
2013-04-12 07:35:00,43.2,24.4,29.99,SW,221,4.0,4.0,47,0.00,,---,0.00,VWS V14.01,2013-04-12 11:35:00,
2013-04-12 07:40:00,43.2,24.9,29.99,NE,53,0.0,0.0,48,0.00,,---,0.00,VWS V14.01,2013-04-12 11:40:00,
2013-04-12 07:45:00,43.1,24.8,29.99,NNE,24,0.0,0.0,48,0.00,,---,0.00,VWS V14.01,2013-04-12 11:45:00,
2013-04-12 07:50:00,43.1,24.8,29.98,SE,133,0.0,2.0,48,0.00,,---,0.00,VWS V14.01,2013-04-12 11:50:00,
2013-04-12 07:55:00,43.1,24.8,29.98,East,84,1.0,5.0,48,0.00,,---,0.00,VWS V14.01,2013-04-12 11:55:00,
2013-04-12 08:00:00,42.9,25.1,29.98,South,178,2.0,3.0,49,0.00,,---,0.00,VWS V14.01,2013-04-12 12:00:00,
2013-04-12 08:05:00,42.6,28.9,29.98,WNW,291,2.0,6.0,58,0.00,,---,0.00,VWS V14.01,2013-04-12 12:05:00,
2013-04-12 08:10:00,41.9,28.2,29.98,SSE,151,2.0,9.0,58,0.00,,---,0.00,VWS V14.01,2013-04-12 12:10:00,
2013-04-12 08:16:00,41.5,28.7,29.97,SE,142,5.0,5.0,60,0.00,,---,0.00,VWS V14.01,2013-04-12 12:16:00,
2013-04-12 08:21:00,41.3,28.1,29.97,West,266,0.0,4.0,59,0.01,,---,0.01,VWS V14.01,2013-04-12 12:21:00,
2013-04-12 08:27:00,41.3,28.9,29.97,SW,232,0.0,1.0,61,0.01,,---,0.01,VWS V14.01,2013-04-12 12:27:00,
2013-04-12 08:32:00,41.2,28.4,29.97,WSW,244,1.0,6.0,60,0.01,,---,0.01,VWS V14.01,2013-04-12 12:32:00,
2013-04-12 08:38:00,41.3,28.5,29.97,North,5,0.0,0.0,60,0.01,,---,0.01,VWS V14.01,2013-04-12 12:38:00,
2013-04-12 08:44:00,41.3,28.1,29.97,SSW,194,1.0,1.0,59,0.01,,---,0.01,VWS V14.01,2013-04-12 12:44:00,
2013-04-12 08:49:00,41.3,28.1,29.96,South,173,2.0,9.0,59,0.01,,---,0.01,VWS V14.01,2013-04-12 12:49:00,
2013-04-12 08:54:00,41.2,28.8,29.95,ESE,102,0.0,2.0,61,0.01,,---,0.01,VWS V14.01,2013-04-12 12:54:00,
2013-04-12 08:59:00,41.1,29.5,29.95,NNE,12,0.0,1.0,63,0.01,,---,0.01,VWS V14.01,2013-04-12 12:59:00,
2013-04-12 09:05:00,40.8,30.3,29.95,NW,309,3.0,3.0,66,0.01,,---,0.01,VWS V14.01,2013-04-12 13:05:00,
2013-04-12 09:10:00,40.5,30.4,29.94,SSW,206,0.0,9.0,67,0.01,,---,0.01,VWS V14.01,2013-04-12 13:10:00,
2013-04-12 09:15:00,40.2,30.5,29.94,SE,125,2.0,2.0,68,0.01,,---,0.01,VWS V14.01,2013-04-12 13:15:00,
2013-04-12 09:21:00,40.1,30.8,29.94,West,259,2.0,3.0,69,0.00,,---,0.01,VWS V14.01,2013-04-12 13:21:00,
2013-04-12 09:26:00,39.9,32.0,29.93,WNW,302,1.0,2.0,73,0.00,,---,0.01,VWS V14.01,2013-04-12 13:26:00,
2013-04-12 09:31:00,39.5,31.2,29.94,NW,321,4.0,6.0,72,0.01,,---,0.02,VWS V14.01,2013-04-12 13:31:00,
2013-04-12 09:36:00,39.2,32.0,29.94,North,351,2.0,10.0,75,0.02,,---,0.03,VWS V14.01,2013-04-12 13:36:00,
2013-04-12 09:42:00,38.8,32.2,29.93,WNW,302,0.0,0.0,77,0.02,,---,0.03,VWS V14.01,2013-04-12 13:42:00,
2013-04-12 09:47:00,38.5,32.6,29.93,SSE,151,4.0,4.0,79,0.02,,---,0.03,VWS V14.01,2013-04-12 13:47:00,
2013-04-12 09:52:00,38.5,32.9,29.92,NW,324,0.0,2.0,80,0.03,,---,0.04,VWS V14.01,2013-04-12 13:52:00,
2013-04-12 09:57:00,38.5,32.9,29.93,NNW,348,0.0,1.0,80,0.03,,---,0.04,VWS V14.01,2013-04-12 13:57:00,
2013-04-12 10:03:00,38.3,33.0,29.92,SSE,151,0.0,2.0,81,0.03,,---,0.04,VWS V14.01,2013-04-12 14:03:00,
2013-04-12 10:08:00,38.3,33.0,29.92,NNE,29,6.0,6.0,81,0.03,,---,0.04,VWS V14.01,2013-04-12 14:08:00,
2013-04-12 10:13:00,38.2,32.9,29.92,NNW,331,0.0,4.0,81,0.04,,---,0.05,VWS V14.01,2013-04-12 14:13:00,
2013-04-12 10:18:00,38.2,33.5,29.93,SE,138,0.0,3.0,83,0.07,,---,0.08,VWS V14.01,2013-04-12 14:18:00,
2013-04-12 10:24:00,38.0,33.9,29.94,SW,227,0.0,0.0,85,0.15,,---,0.16,VWS V14.01,2013-04-12 14:24:00,
2013-04-12 10:30:00,37.9,34.1,29.92,ENE,62,1.0,2.0,86,0.16,,---,0.18,VWS V14.01,2013-04-12 14:30:00,
2013-04-12 10:35:00,37.8,34.0,29.94,SSE,153,1.0,2.0,86,0.16,,---,0.19,VWS V14.01,2013-04-12 14:35:00,
2013-04-12 10:41:00,37.8,34.3,29.94,SSE,154,2.0,2.0,87,0.17,,---,0.20,VWS V14.01,2013-04-12 14:41:00,
2013-04-12 10:46:00,37.8,34.3,29.93,SSW,201,2.0,4.0,87,0.18,,---,0.21,VWS V14.01,2013-04-12 14:46:00,
2013-04-12 10:53:00,37.8,34.6,29.94,NNE,33,2.0,3.0,88,0.18,,---,0.22,VWS V14.01,2013-04-12 14:53:00,
2013-04-12 10:59:00,37.8,34.6,29.94,SSE,168,1.0,2.0,88,0.19,,---,0.23,VWS V14.01,2013-04-12 14:59:00,
2013-04-12 11:04:00,37.8,34.6,29.95,South,169,3.0,3.0,88,0.19,,---,0.23,VWS V14.01,2013-04-12 15:04:00,
2013-04-12 11:09:00,37.8,34.9,29.95,SE,140,0.0,0.0,89,0.21,,---,0.25,VWS V14.01,2013-04-12 15:09:00,
2013-04-12 11:15:00,37.8,34.9,29.95,NNE,32,1.0,1.0,89,0.21,,---,0.27,VWS V14.01,2013-04-12 15:15:00,
2013-04-12 11:20:00,37.8,34.9,29.94,NW,324,1.0,3.0,89,0.19,,---,0.28,VWS V14.01,2013-04-12 15:20:00,
2013-04-12 11:25:00,37.8,34.9,29.95,SSE,153,1.0,3.0,89,0.13,,---,0.29,VWS V14.01,2013-04-12 15:25:00,
2013-04-12 11:30:00,37.8,35.1,29.95,NNE,14,0.0,2.0,90,0.13,,---,0.31,VWS V14.01,2013-04-12 15:30:00,
2013-04-12 11:36:00,37.9,35.2,29.94,SSW,192,1.0,2.0,90,0.12,,---,0.31,VWS V14.01,2013-04-12 15:36:00,
2013-04-12 11:41:00,37.9,35.2,29.93,East,92,1.0,4.0,90,0.12,,---,0.31,VWS V14.01,2013-04-12 15:41:00,
2013-04-12 11:46:00,37.9,35.2,29.93,ENE,78,0.0,1.0,90,0.11,,---,0.32,VWS V14.01,2013-04-12 15:46:00,
2013-04-12 11:51:00,38.0,35.3,29.92,SSW,194,2.0,5.0,90,0.11,,---,0.32,VWS V14.01,2013-04-12 15:51:00,
2013-04-12 11:57:00,38.2,35.5,29.94,NE,36,3.0,4.0,90,0.11,,---,0.33,VWS V14.01,2013-04-12 15:57:00,
2013-04-12 12:03:00,38.2,35.8,29.94,ENE,76,0.0,5.0,91,0.11,,---,0.34,VWS V14.01,2013-04-12 16:03:00,
2013-04-12 12:09:00,38.3,35.9,29.93,North,351,2.0,4.0,91,0.11,,---,0.35,VWS V14.01,2013-04-12 16:09:00,
2013-04-12 12:15:00,38.5,36.1,29.92,SSE,149,0.0,2.0,91,0.09,,---,0.36,VWS V14.01,2013-04-12 16:15:00,
2013-04-12 12:20:00,38.6,36.2,29.92,NNW,327,2.0,4.0,91,0.08,,---,0.36,VWS V14.01,2013-04-12 16:20:00,
2013-04-12 12:26:00,38.8,36.4,29.92,NW,308,2.0,2.0,91,0.07,,---,0.36,VWS V14.01,2013-04-12 16:26:00,
2013-04-12 12:31:00,38.9,36.5,29.91,East,100,0.0,10.0,91,0.05,,---,0.36,VWS V14.01,2013-04-12 16:31:00,
2013-04-12 12:36:00,38.9,36.5,29.91,NNW,331,0.0,3.0,91,0.05,,---,0.36,VWS V14.01,2013-04-12 16:36:00,
2013-04-12 12:41:00,38.9,36.5,29.90,WNW,288,3.0,4.0,91,0.06,,---,0.37,VWS V14.01,2013-04-12 16:41:00,
2013-04-12 12:46:00,38.9,36.5,29.89,SSE,149,0.0,2.0,91,0.05,,---,0.37,VWS V14.01,2013-04-12 16:46:00,
2013-04-12 12:52:00,38.9,36.5,29.88,East,88,3.0,9.0,91,0.05,,---,0.37,VWS V14.01,2013-04-12 16:52:00,
2013-04-12 12:57:00,38.9,36.5,29.89,ESE,104,9.0,9.0,91,0.05,,---,0.38,VWS V14.01,2013-04-12 16:57:00,
2013-04-12 13:03:00,38.9,36.2,29.88,NNE,30,1.0,6.0,90,0.04,,---,0.38,VWS V14.01,2013-04-12 17:03:00,
2013-04-12 13:08:00,38.9,36.2,29.88,ESE,114,9.0,9.0,90,0.03,,---,0.38,VWS V14.01,2013-04-12 17:08:00,
2013-04-12 13:13:00,38.9,36.2,29.87,SSW,198,2.0,5.0,90,0.04,,---,0.39,VWS V14.01,2013-04-12 17:13:00,
2013-04-12 13:18:00,39.1,36.4,29.86,North,9,2.0,6.0,90,0.03,,---,0.39,VWS V14.01,2013-04-12 17:18:00,
2013-04-12 13:23:00,39.2,36.8,29.86,East,86,0.0,0.0,91,0.03,,---,0.39,VWS V14.01,2013-04-12 17:23:00,
2013-04-12 13:29:00,39.3,36.9,29.86,North,355,1.0,3.0,91,0.03,,---,0.39,VWS V14.01,2013-04-12 17:29:00,
2013-04-12 13:34:00,39.3,36.9,29.86,East,91,0.0,2.0,91,0.03,,---,0.39,VWS V14.01,2013-04-12 17:34:00,
2013-04-12 13:39:00,39.3,36.9,29.86,WNW,295,0.0,2.0,91,0.02,,---,0.39,VWS V14.01,2013-04-12 17:39:00,
2013-04-12 13:45:00,39.3,36.9,29.86,SW,234,2.0,2.0,91,0.02,,---,0.39,VWS V14.01,2013-04-12 17:45:00,
2013-04-12 13:50:00,39.2,36.8,29.86,East,81,1.0,4.0,91,0.02,,---,0.39,VWS V14.01,2013-04-12 17:50:00,
2013-04-12 13:55:00,39.2,36.5,29.86,WNW,294,7.0,7.0,90,0.03,,---,0.40,VWS V14.01,2013-04-12 17:55:00,
2013-04-12 14:00:00,39.1,36.4,29.85,NNW,348,0.0,2.0,90,0.02,,---,0.40,VWS V14.01,2013-04-12 18:00:00,
2013-04-12 14:05:00,39.1,36.4,29.85,NNE,12,2.0,2.0,90,0.02,,---,0.40,VWS V14.01,2013-04-12 18:05:00,
2013-04-12 14:10:00,39.1,36.4,29.85,NNW,327,2.0,3.0,90,0.02,,---,0.40,VWS V14.01,2013-04-12 18:10:00,
2013-04-12 14:15:00,39.1,36.4,29.84,WNW,302,1.0,9.0,90,0.01,,---,0.40,VWS V14.01,2013-04-12 18:15:00,
2013-04-12 14:22:00,39.1,36.4,29.84,NE,43,3.0,5.0,90,0.01,,---,0.40,VWS V14.01,2013-04-12 18:22:00,
2013-04-12 14:27:00,38.9,36.2,29.84,NNW,342,0.0,0.0,90,0.01,,---,0.40,VWS V14.01,2013-04-12 18:27:00,
2013-04-12 15:26:00,39.3,37.2,29.81,NE,50,0.0,1.0,92,0.05,,---,0.45,VWS V14.01,2013-04-12 19:26:00,
2013-04-12 15:30:00,39.5,37.4,29.81,NNW,338,0.0,0.0,92,0.06,,---,0.46,VWS V14.01,2013-04-12 19:30:00,
2013-04-12 15:32:00,39.5,37.4,29.81,WNW,303,0.0,3.0,92,0.06,,---,0.46,VWS V14.01,2013-04-12 19:32:00,
2013-04-12 15:37:00,39.5,37.4,29.80,NNW,330,0.0,2.0,92,0.06,,---,0.46,VWS V14.01,2013-04-12 19:37:00,
2013-04-12 15:38:00,39.5,37.4,29.80,NNW,330,0.0,2.0,92,0.06,,---,0.46,VWS V14.01,2013-04-12 19:38:00,
2013-04-12 15:43:00,39.5,37.4,29.80,NNW,348,1.0,2.0,92,0.06,,---,0.46,VWS V14.01,2013-04-12 19:43:00,
2013-04-12 15:49:00,39.5,37.4,29.80,NNW,327,0.0,0.0,92,0.05,,---,0.46,VWS V14.01,2013-04-12 19:49:00,
2013-04-12 15:54:00,39.6,37.5,29.79,NNE,17,0.0,1.0,92,0.05,,---,0.46,VWS V14.01,2013-04-12 19:54:00,
2013-04-12 15:59:00,39.6,37.5,29.78,North,360,2.0,2.0,92,0.05,,---,0.46,VWS V14.01,2013-04-12 19:59:00,
2013-04-12 16:04:00,39.8,37.7,29.78,NE,37,5.0,6.0,92,0.04,,---,0.46,VWS V14.01,2013-04-12 20:04:00,
2013-04-12 16:09:00,39.8,37.7,29.78,ENE,70,0.0,4.0,92,0.04,,---,0.46,VWS V14.01,2013-04-12 20:09:00,
2013-04-12 16:14:00,39.8,37.7,29.78,NNE,15,0.0,2.0,92,0.05,,---,0.47,VWS V14.01,2013-04-12 20:14:00,
2013-04-12 16:19:00,39.8,37.7,29.78,NE,48,0.0,0.0,92,0.04,,---,0.47,VWS V14.01,2013-04-12 20:19:00,
2013-04-12 16:24:00,39.8,37.7,29.78,NW,309,0.0,3.0,92,0.03,,---,0.47,VWS V14.01,2013-04-12 20:24:00,
2013-04-12 16:29:00,39.9,37.8,29.77,WNW,302,0.0,1.0,92,0.02,,---,0.47,VWS V14.01,2013-04-12 20:29:00,
2013-04-12 16:35:00,39.9,37.8,29.77,NW,321,0.0,0.0,92,0.01,,---,0.47,VWS V14.01,2013-04-12 20:35:00,
2013-04-12 16:40:00,39.9,37.8,29.77,North,5,2.0,4.0,92,0.01,,---,0.47,VWS V14.01,2013-04-12 20:40:00,
2013-04-12 16:45:00,39.9,37.8,29.78,NW,309,0.0,0.0,92,0.01,,---,0.47,VWS V14.01,2013-04-12 20:45:00,
2013-04-12 16:51:00,39.9,37.8,29.78,WNW,298,0.0,0.0,92,0.01,,---,0.47,VWS V14.01,2013-04-12 20:51:00,
2013-04-12 16:56:00,39.9,37.8,29.78,NNE,16,1.0,1.0,92,0.01,,---,0.47,VWS V14.01,2013-04-12 20:56:00,
2013-04-12 17:01:00,39.9,37.8,29.77,NE,42,2.0,2.0,92,0.01,,---,0.47,VWS V14.01,2013-04-12 21:01:00,
2013-04-12 17:06:00,39.9,37.8,29.77,SSW,198,0.0,1.0,92,0.01,,---,0.47,VWS V14.01,2013-04-12 21:06:00,
2013-04-12 17:11:00,39.9,37.8,29.77,North,355,0.0,1.0,92,0.01,,---,0.47,VWS V14.01,2013-04-12 21:11:00,
2013-04-12 17:16:00,40.1,38.0,29.77,East,83,1.0,4.0,92,0.00,,---,0.47,VWS V14.01,2013-04-12 21:16:00,
2013-04-12 17:22:00,39.9,37.8,29.77,NNE,28,0.0,6.0,92,0.00,,---,0.47,VWS V14.01,2013-04-12 21:22:00,
2013-04-12 17:27:00,39.9,37.8,29.76,WNW,283,0.0,0.0,92,0.00,,---,0.47,VWS V14.01,2013-04-12 21:27:00,
2013-04-12 17:33:00,39.9,37.8,29.77,NW,309,0.0,0.0,92,0.00,,---,0.47,VWS V14.01,2013-04-12 21:33:00,
2013-04-12 17:38:00,39.9,37.8,29.77,North,9,1.0,1.0,92,0.01,,---,0.48,VWS V14.01,2013-04-12 21:38:00,
2013-04-12 17:43:00,39.8,37.7,29.77,NNW,331,0.0,0.0,92,0.01,,---,0.48,VWS V14.01,2013-04-12 21:43:00,
2013-04-12 17:48:00,39.8,37.7,29.77,NNW,333,0.0,1.0,92,0.01,,---,0.48,VWS V14.01,2013-04-12 21:48:00,
2013-04-12 17:53:00,39.8,37.7,29.77,North,355,0.0,0.0,92,0.01,,---,0.48,VWS V14.01,2013-04-12 21:53:00,
2013-04-12 17:58:00,39.8,37.7,29.76,NNE,20,1.0,1.0,92,0.01,,---,0.48,VWS V14.01,2013-04-12 21:58:00,
2013-04-12 18:04:00,39.6,37.8,29.77,NW,313,0.0,4.0,93,0.01,,---,0.48,VWS V14.01,2013-04-12 22:04:00,
2013-04-12 18:09:00,39.6,37.8,29.77,WNW,299,0.0,5.0,93,0.01,,---,0.48,VWS V14.01,2013-04-12 22:09:00,
2013-04-12 18:14:00,39.5,37.7,29.77,North,5,0.0,0.0,93,0.01,,---,0.48,VWS V14.01,2013-04-12 22:14:00,
2013-04-12 18:19:00,39.5,37.7,29.77,NNW,333,0.0,3.0,93,0.01,,---,0.48,VWS V14.01,2013-04-12 22:19:00,
2013-04-12 18:24:00,39.5,37.7,29.77,North,360,2.0,3.0,93,0.01,,---,0.48,VWS V14.01,2013-04-12 22:24:00,
2013-04-12 18:29:00,39.3,37.5,29.77,North,5,2.0,2.0,93,0.01,,---,0.48,VWS V14.01,2013-04-12 22:29:00,
2013-04-12 18:34:00,39.3,37.5,29.77,NW,311,0.0,1.0,93,0.01,,---,0.48,VWS V14.01,2013-04-12 22:34:00,
2013-04-12 18:40:00,39.2,37.3,29.77,NNW,331,0.0,1.0,93,0.00,,---,0.48,VWS V14.01,2013-04-12 22:40:00,
2013-04-12 18:46:00,39.2,37.3,29.77,NW,319,0.0,0.0,93,0.00,,---,0.48,VWS V14.01,2013-04-12 22:46:00,
2013-04-12 18:51:00,39.2,37.3,29.77,NE,37,2.0,2.0,93,0.00,,---,0.48,VWS V14.01,2013-04-12 22:51:00,
2013-04-12 18:56:00,39.1,37.2,29.77,NW,313,2.0,3.0,93,0.00,,---,0.48,VWS V14.01,2013-04-12 22:56:00,
2013-04-12 19:01:00,39.1,37.2,29.76,NNE,13,0.0,4.0,93,0.00,,---,0.48,VWS V14.01,2013-04-12 23:01:00,
2013-04-12 19:07:00,38.9,37.0,29.76,NNE,19,0.0,0.0,93,0.00,,---,0.48,VWS V14.01,2013-04-12 23:07:00,
2013-04-12 19:12:00,38.9,37.0,29.76,North,355,1.0,2.0,93,0.00,,---,0.48,VWS V14.01,2013-04-12 23:12:00,
2013-04-12 19:17:00,38.9,37.0,29.76,NNW,333,0.0,0.0,93,0.00,,---,0.48,VWS V14.01,2013-04-12 23:17:00,
2013-04-12 19:23:00,38.9,37.0,29.75,NNW,335,0.0,0.0,93,0.00,,---,0.48,VWS V14.01,2013-04-12 23:23:00,
2013-04-12 19:28:00,38.8,37.0,29.75,NNW,330,0.0,1.0,93,0.00,,---,0.48,VWS V14.01,2013-04-12 23:28:00,
2013-04-12 19:33:00,38.8,37.0,29.75,NW,326,2.0,4.0,93,0.00,,---,0.48,VWS V14.01,2013-04-12 23:33:00,
2013-04-12 19:39:00,38.6,36.8,29.75,WNW,303,0.0,2.0,93,0.00,,---,0.48,VWS V14.01,2013-04-12 23:39:00,
2013-04-12 19:44:00,38.6,36.8,29.75,NNW,335,0.0,1.0,93,0.00,,---,0.48,VWS V14.01,2013-04-12 23:44:00,
2013-04-12 19:49:00,38.6,36.8,29.75,North,350,0.0,1.0,93,0.00,,---,0.48,VWS V14.01,2013-04-12 23:49:00,
2013-04-12 19:54:00,38.6,36.8,29.75,NNW,327,2.0,3.0,93,0.00,,---,0.48,VWS V14.01,2013-04-12 23:54:00,
2013-04-12 19:59:00,38.5,36.7,29.75,NNW,344,0.0,2.0,93,0.00,,---,0.48,VWS V14.01,2013-04-12 23:59:00,
2013-04-12 20:04:00,38.5,36.7,29.75,NNE,16,4.0,4.0,93,0.00,,---,0.48,VWS V14.01,2013-04-13 00:04:00,
2013-04-12 20:09:00,38.3,36.5,29.75,NNW,329,0.0,0.0,93,0.00,,---,0.48,VWS V14.01,2013-04-13 00:09:00,
2013-04-12 20:15:00,38.3,36.5,29.75,NNE,22,5.0,5.0,93,0.00,,---,0.48,VWS V14.01,2013-04-13 00:15:00,
2013-04-12 20:20:00,38.2,36.4,29.75,NW,321,3.0,3.0,93,0.00,,---,0.48,VWS V14.01,2013-04-13 00:20:00,
2013-04-12 20:25:00,38.2,36.4,29.75,NW,313,0.0,3.0,93,0.00,,---,0.48,VWS V14.01,2013-04-13 00:25:00,
2013-04-12 20:30:00,38.0,36.2,29.75,North,350,2.0,4.0,93,0.00,,---,0.48,VWS V14.01,2013-04-13 00:30:00,
2013-04-12 20:35:00,38.0,36.2,29.75,NNE,29,2.0,2.0,93,0.00,,---,0.48,VWS V14.01,2013-04-13 00:35:00,
2013-04-12 20:40:00,38.0,36.2,29.75,NW,307,2.0,5.0,93,0.00,,---,0.48,VWS V14.01,2013-04-13 00:40:00,
2013-04-12 20:45:00,37.9,36.1,29.75,NNW,341,3.0,4.0,93,0.00,,---,0.48,VWS V14.01,2013-04-13 00:45:00,
2013-04-12 20:50:00,37.9,36.1,29.75,NNW,327,0.0,1.0,93,0.00,,---,0.48,VWS V14.01,2013-04-13 00:50:00,
2013-04-12 20:56:00,37.9,36.1,29.75,NNW,330,1.0,3.0,93,0.00,,---,0.48,VWS V14.01,2013-04-13 00:56:00,
2013-04-12 21:01:00,37.8,36.0,29.75,NNE,19,2.0,5.0,93,0.00,,---,0.48,VWS V14.01,2013-04-13 01:01:00,
2013-04-12 21:07:00,37.8,36.0,29.75,NNW,340,0.0,1.0,93,0.00,,---,0.48,VWS V14.01,2013-04-13 01:07:00,
2013-04-12 21:12:00,37.8,36.0,29.75,NNW,348,0.0,2.0,93,0.00,,---,0.48,VWS V14.01,2013-04-13 01:12:00,
2013-04-12 21:18:00,37.6,35.8,29.75,WNW,300,2.0,3.0,93,0.00,,---,0.48,VWS V14.01,2013-04-13 01:18:00,
2013-04-12 21:23:00,37.6,35.8,29.76,NW,309,1.0,2.0,93,0.00,,---,0.48,VWS V14.01,2013-04-13 01:23:00,
2013-04-12 21:29:00,37.6,35.8,29.76,NW,325,0.0,2.0,93,0.00,,---,0.48,VWS V14.01,2013-04-13 01:29:00,
2013-04-12 21:35:00,37.6,35.8,29.76,NW,307,2.0,3.0,93,0.00,,---,0.48,VWS V14.01,2013-04-13 01:35:00,
2013-04-12 21:40:00,37.6,35.8,29.75,North,5,0.0,3.0,93,0.00,,---,0.48,VWS V14.01,2013-04-13 01:40:00,
2013-04-12 21:45:00,37.5,35.7,29.76,North,5,1.0,4.0,93,0.00,,---,0.48,VWS V14.01,2013-04-13 01:45:00,
2013-04-12 21:50:00,37.5,35.7,29.76,NW,315,0.0,1.0,93,0.00,,---,0.48,VWS V14.01,2013-04-13 01:50:00,
2013-04-12 21:55:00,37.5,35.7,29.76,North,355,2.0,3.0,93,0.00,,---,0.48,VWS V14.01,2013-04-13 01:55:00,
2013-04-12 22:00:00,37.5,35.7,29.75,NNE,28,0.0,6.0,93,0.00,,---,0.48,VWS V14.01,2013-04-13 02:00:00,
2013-04-12 22:05:00,37.3,35.5,29.75,NNE,31,0.0,0.0,93,0.00,,---,0.48,VWS V14.01,2013-04-13 02:05:00,
2013-04-12 22:10:00,37.3,35.5,29.75,NE,34,0.0,3.0,93,0.00,,---,0.48,VWS V14.01,2013-04-13 02:10:00,
2013-04-12 22:15:00,37.3,35.5,29.75,North,10,0.0,1.0,93,0.00,,---,0.48,VWS V14.01,2013-04-13 02:15:00,
2013-04-12 22:20:00,37.3,35.5,29.76,North,9,0.0,3.0,93,0.00,,---,0.48,VWS V14.01,2013-04-13 02:20:00,
2013-04-12 22:25:00,37.3,35.5,29.76,NNW,337,5.0,5.0,93,0.00,,---,0.48,VWS V14.01,2013-04-13 02:25:00,
2013-04-12 22:31:00,37.3,35.5,29.76,NW,318,2.0,2.0,93,0.00,,---,0.48,VWS V14.01,2013-04-13 02:31:00,
2013-04-12 22:36:00,37.3,35.5,29.76,NW,325,0.0,0.0,93,0.00,,---,0.48,VWS V14.01,2013-04-13 02:36:00,
2013-04-12 22:41:00,37.3,35.5,29.77,NNW,343,0.0,0.0,93,0.00,,---,0.48,VWS V14.01,2013-04-13 02:41:00,
2013-04-12 22:46:00,37.3,35.5,29.77,NNW,347,1.0,1.0,93,0.00,,---,0.48,VWS V14.01,2013-04-13 02:46:00,
2013-04-12 22:51:00,37.3,35.5,29.76,NNW,341,3.0,5.0,93,0.00,,---,0.48,VWS V14.01,2013-04-13 02:51:00,
2013-04-12 22:57:00,37.2,35.4,29.76,NNW,336,0.0,0.0,93,0.00,,---,0.48,VWS V14.01,2013-04-13 02:57:00,
2013-04-12 23:02:00,37.2,35.4,29.76,NNW,346,1.0,5.0,93,0.00,,---,0.48,VWS V14.01,2013-04-13 03:02:00,
2013-04-12 23:07:00,37.2,35.4,29.76,NNW,341,3.0,4.0,93,0.00,,---,0.48,VWS V14.01,2013-04-13 03:07:00,
2013-04-12 23:13:00,37.2,35.4,29.76,NNW,344,2.0,4.0,93,0.00,,---,0.48,VWS V14.01,2013-04-13 03:13:00,
2013-04-12 23:18:00,37.2,35.4,29.76,North,355,0.0,2.0,93,0.00,,---,0.48,VWS V14.01,2013-04-13 03:18:00,
2013-04-12 23:23:00,37.0,35.2,29.76,NNW,340,3.0,5.0,93,0.00,,---,0.48,VWS V14.01,2013-04-13 03:23:00,
2013-04-12 23:28:00,37.0,35.2,29.77,NNW,342,1.0,3.0,93,0.00,,---,0.48,VWS V14.01,2013-04-13 03:28:00,
2013-04-12 23:33:00,37.0,35.2,29.77,NNE,24,2.0,2.0,93,0.00,,---,0.48,VWS V14.01,2013-04-13 03:33:00,
2013-04-12 23:39:00,37.0,35.2,29.76,NNW,334,2.0,5.0,93,0.00,,---,0.48,VWS V14.01,2013-04-13 03:39:00,
2013-04-12 23:44:00,36.9,35.1,29.77,North,5,2.0,4.0,93,0.00,,---,0.48,VWS V14.01,2013-04-13 03:44:00,
2013-04-12 23:49:00,36.9,35.1,29.77,NNW,331,0.0,0.0,93,0.00,,---,0.48,VWS V14.01,2013-04-13 03:49:00,
2013-04-12 23:54:00,36.8,35.0,29.78,NNW,331,0.0,0.0,93,0.01,,---,0.49,VWS V14.01,2013-04-13 03:54:00,